Погода Благодарный

Погода Благодарный : погода сейчас, прогноз погоды и архив. Всё, что Вы хотите узнать о погоде Благодарный!

Поиск расширенной информации на нашем сайте:

Другие новости

Новости СМИ2

Главная страница сайта

Новости сайта

03.07.2017

Напоминаем, что на нашем специализированном сайте Метеоцентр.Азия вы можете получить высокодетализированные автоматические прогнозы погоды по пунктам России, СНГ и мира в авиационном формате (включающие направление и скорость ветра, видимость, явления погоды, количество и форму облачности, нижнюю и верхнюю границу облачности).


Погода Благодарный - сегодня

Время (UTC), дата Ветер
(°,м/с) 
Видим.   Явления Облачность Т
(°С)
Тd
(°С)
f(%) Тe
(°С)
Pmin
(гПа)
dP
(гПа)
Po
(мм)
O2
(г/м3)
Тmin Tmax R s Состояние
почвы
00 18.08.17 060 (СВ) 20000 м    8/8 600 м 
[Sc]
+22.5 +11.6 50 +26  1013.6  -0.2  746  276           
03 18.08.17 060 (СВ) 20000 м    10/10 600 м 
[Sc]
+20.5 +12.8 61 +26  1014.1  0.4  746  277  +20.5        сухая 
06 18.08.17 080 (В) 20000 м    8/6 600 м средняя 
[Sc|Ac trans]
+24.9 +12.9 47 +30  1014.7  0.9  747  273           
09 18.08.17 090 (В) 20000 м    10/10 600 м 
[Sc]
+27.3 +11.8 38 +31  1015.3  0.7  748  272           
12 18.08.17 210 (ЮЗ) 20000 м  в посл. час ливневой дождь  10/10 600 м кучево-дожд. 
[Cb cap]
+26.9 +14.6 47 +35  1015.6  0.3  748  271           
15 18.08.17 130 (ЮВ) 20000 м    6/6 600 м 
[Sc]
+27.5 +9.9 33 +29  1015.5  0.1  748  272    +28.7       
18 18.08.17 100 (В) 20000 м    ясно 
+20.8 +11.2 54 +24  1017.2  1.2  749  278           
21 18.08.17 080 (В) 20000 м    ясно 
+16.7 +10.1 65 +19  1017.1  -0.4  748  282           
00 19.08.17 тихо ()   20000 м    ясно 
+14.2 +10.3 77 +16  1017.4  -0.1  749  285           
03 19.08.17 тихо ()   20000 м    1/0 верхняя 
[Ci fib]
+13.8 +10.6 81 +16  1017.8  0.4  749  285  +12.8        сухая 
06 19.08.17 110 (В) 20000 м    3/3 600 м 
[Sc]
+25.2 +13.6 49 +32  1017.7  0.6  749  274           
09 19.08.17 100 (В) 20000 м    8/8 600 м 
[Sc]
+31.2 +3.6 17 +31  1016.4  -1  749  270           
12 19.08.17 080 (В) 5-10{10}  20000 м    3/3 600 м 
[Sc]
+32.9 +2.1 14 +33  1015  -1.3  748  269           
15 19.08.17 090 (В) 2{10}  20000 м    10/10 600 м 
[Sc]
+30.2 +6.3 22 +30  1015.3  0.2  748  270    +33.1       
18 19.08.17 120 (ЮВ) 20000 м    10/10 600 м 
[Sc]
+27.9 +10.4 34 +30  1016.4  749  272           
21 19.08.17 090 (В) 20000 м    9/9 600 м 
[Sc]
+24 +8.4 37 +24  1016.3  -0.3  748  276           
00 20.08.17 050 (СВ) 20000 м    ясно 
+18.5 +8.5 52 +20  1016.4  -0.3  748  281           
03 20.08.17 тихо ()   20000 м    9/9 600 м 
[Sc]
+17.4 +10.5 64 +19  1016.6  0.1  748  281  +16.5        сухая 
06 20.08.17 120 (ЮВ) 20000 м    3/3 600 м 
[Sc]
+27.3 +10.6 35 +29  1016.1  0.2  748  272           
09 20.08.17 110 (В) 4{10}  20000 м    3/3 600 м 
[Sc]
+32.6 +3.5 16 +33  1014  -1.8  747  268           
12 20.08.17 100 (В) 2{11}  20000 м    10/10 600 м 
[Sc]
+33.2 +2.6 14 +33  1012.7  -1.8  746  268           
15 20.08.17 120 (ЮВ) 20000 м    10/10 600 м 
[Sc]
+30.2 +7.9 25 +30  1012.7  -0.1  746  269    +34.2       
18 20.08.17 090 (В) 4{13}  20000 м    10/10 600 м 
[Sc]
+25.1 +8.4 35 +25  1015  747  274           
21 20.08.17 080 (В) 20000 м    10/10 600 м 
[Sc]
+24.7 +10.1 40 +26  1014.9  0.1  747  274           
00 21.08.17 080 (В) 2{10}  20000 м    3/3 600 м 
[Sc]
+22.1 +7.6 39 +22  1014.7  -0.4  747  277           
Время (UTC), дата Ветер
(°,м/с) 
Видим.   Явления Облачность Т
(°С)
Тd
(°С)
f(%) Тe
(°С)
Pmin
(гПа)
dP
(гПа)
Po
(мм)
O2
(г/м3)
Тmin Tmax R s Состояние
почвы

Для получения пояснительной информации подведите курсор к названию столбца.

ПОГОДА Благодарный - архив

Всё, что Вы хотите узнать о погоде Благодарный - удобно и подробно!

Выберите нужную дату (начиная с 1 января 2015* года) и нажмите кнопку "Найти".
Будут отображены архивные сводки погоды по пункту Благодарный, начиная с указанной даты.


Отображать данные в формате CSV (для использования в таблицах Excel)


Внимание! Наш архив погоды предназначен исключительно для личного некоммерческого использования в познавательных целях. Если Вам необходимы официальные справки о состоянии погоды (для производственных, юридических, коммерческих и т.п. целей), обращайтесь в органы Росгидромета.

*Примечание: данная дата относится к архиву по метеостанциям СССР (Россия, СНГ, Балтия).
Архив по метеостанциям Зарубежной Европы и Азии (кроме Китая) хранится 10 дней, по другим регионам земного шара (Китай, Африка, Америка, Австралия, Океания) - 1 день.

Благодарный - район местоположения метеостанции


Название, широта, долгота, высота метеостанции:
Благодарный 45.1°ш. 43.4°д. 162 м над ур. моря [Российская Федерация]

Дополнительная информация

В oтличие oт бoльшинства пoгoдных сайтoв мы публикуем пoдрoбную метеoинфoрмацию в детальнoм прoфессиoнальнoм фoрмате.

Характеристики температуры и влажнoсти вoздуха измеряются на высoте 2 м в тени вдали oт зданий и деревьев.
Скoрoсть ветра измеряется на высoте 10 м (на урoвне рoста челoвека скoрoсть ветра ниже в 1.5-2 раза). Если метеoстанция нахoдится в гoрoде или в лесу, тo скoрoсть ветра занижена на 2-4 м/с пo сравнению с oткрытым местoм. Скoрoсть ветра над акватoриями крупных рек и oзёр, а также на вершинах хoлмoв на 2-5 м/с выше, чем в oбычных услoвиях.
Атмoсфернoе давление в разных тoчках местнoсти мoжет значительнo oтличаться oт давления на метеoстанции, в зависимoсти oт услoвий рельефа (при пoдъёме на 10 м давление пoнижается примернo на 1 мм рт.ст.).